Date String (YYYY-MM-DD hh:mm:ss) UTC,Instrument flags,Ambient pressure (hPa),Sample flow (lpm),Bypass flow (lpm),Sample temperature (°C),Ambient temperature (°C),ASC tube jacket temperature (°C),LED temperature (°C),Box temperature (°C),Sample RH (%),Span deviation,Mass concentration (μg/m³),Mass concentration (μg/m³),Mass concentration (μg/m³)
DateTimeUTC,F1_M11,P_M11,Q1_M11,Q2_M11,T1_M11,T2_M11,T3_M11,T4_M11,T5_M11,U1_M11,ZSPAN_M11,X2_M11,X0_M11,X1_M11
2022-12-11 20:00:00,,0817.8,5.01,0.00,27.3,26.2,00.0,35.9,29.2,06.8,0000.0,0004.75,0009.61,0004.15
2022-12-11 20:01:00,,0817.8,5.01,0.00,27.3,26.2,00.0,36.0,29.2,06.8,0000.0,0004.86,0009.84,0004.26
2022-12-11 20:02:00,,0817.8,5.00,0.00,27.3,26.3,00.0,36.0,29.2,06.6,0000.0,0004.87,0010.70,0004.27
2022-12-11 20:03:00,,0817.8,5.00,0.00,27.3,26.3,00.0,36.0,29.2,06.6,0000.0,0004.84,0010.69,0004.25
2022-12-11 20:04:00,,0817.8,5.00,0.00,27.4,26.3,00.0,36.0,29.3,06.6,0000.0,0004.78,0010.60,0004.20
2022-12-11 20:05:00,,0817.8,5.00,0.00,27.4,26.3,00.0,36.0,29.3,06.6,0000.0,0004.68,0010.13,0004.13
2022-12-11 20:06:00,,0817.9,5.01,0.00,27.4,26.3,00.0,36.1,29.3,06.5,0000.0,0004.59,0009.72,0004.06
2022-12-11 20:07:00,,0817.8,4.99,0.00,27.4,26.4,00.0,36.1,29.3,06.2,0000.0,0004.49,0009.65,0003.96
2022-12-11 20:08:00,,0817.8,4.99,0.00,27.4,26.4,00.0,36.1,29.3,06.1,0000.0,0004.38,0009.52,0003.85
2022-12-11 20:09:00,,0817.8,5.00,0.00,27.5,26.4,00.0,36.1,29.3,06.2,0000.0,0004.25,0009.43,0003.73
2022-12-11 20:10:00,,0817.8,5.02,0.00,27.5,26.4,00.0,36.2,29.4,06.2,0000.0,0004.15,0009.21,0003.64
2022-12-11 20:11:00,,0817.7,4.99,0.00,27.5,26.5,00.0,36.2,29.4,06.2,0000.0,0004.02,0008.82,0003.52
2022-12-11 20:12:00,,0817.7,4.99,0.00,27.5,26.5,00.0,36.2,29.4,06.2,0000.0,0003.86,0009.44,0003.39
2022-12-11 20:13:00,,0817.7,5.00,0.00,27.6,26.6,00.0,36.2,29.5,06.2,0000.0,0003.75,0008.41,0003.28
2022-12-11 20:14:00,,0817.6,5.00,0.00,27.6,26.6,00.0,36.2,29.5,06.4,0000.0,0003.66,0008.35,0003.20
2022-12-11 20:15:00,,0817.6,5.00,0.00,27.6,26.6,00.0,36.3,29.5,06.6,0000.0,0003.64,0008.47,0003.17
2022-12-11 20:16:00,,0817.6,5.01,0.00,27.6,26.6,00.0,36.3,29.5,06.3,0000.0,0003.63,0008.42,0003.16
2022-12-11 20:17:00,,0817.6,5.00,0.00,27.7,26.7,00.0,36.3,29.6,06.0,0000.0,0003.63,0008.41,0003.13
2022-12-11 20:18:00,,0817.6,4.99,0.00,27.7,26.7,00.0,36.3,29.6,06.1,0000.0,0003.61,0008.50,0003.11
2022-12-11 20:19:00,,0817.6,4.99,0.00,27.7,26.7,00.0,36.4,29.6,05.8,0000.0,0003.59,0008.86,0003.09
2022-12-11 20:20:00,,0817.6,5.00,0.00,27.7,26.8,00.0,36.4,29.6,05.4,0000.0,0003.52,0008.66,0003.00
2022-12-11 20:21:00,,0817.6,5.00,0.00,27.8,26.8,00.0,36.4,29.7,05.0,0000.0,0003.38,0008.37,0002.83
2022-12-11 20:22:00,,0817.5,5.02,0.00,27.8,26.8,00.0,36.4,29.7,05.2,0000.0,0003.27,0008.08,0002.65
2022-12-11 20:23:00,,0817.5,5.00,0.00,27.8,26.9,00.0,36.5,29.7,05.4,0000.0,0003.19,0007.09,0002.52
2022-12-11 20:24:00,,0817.5,5.00,0.00,27.8,26.9,00.0,36.5,29.7,05.5,0000.0,0003.14,0007.06,0002.44
2022-12-11 20:25:00,,0817.5,5.00,0.00,27.9,26.9,00.0,36.5,29.8,05.5,0000.0,0003.06,0006.84,0002.36
2022-12-11 20:26:00,,0817.5,5.00,0.00,27.9,26.9,00.0,36.6,29.8,05.5,0000.0,0002.82,0006.13,0002.18
2022-12-11 20:27:00,,0817.5,5.00,0.00,27.9,27.0,00.0,36.6,29.8,05.7,0000.0,0002.65,0005.81,0002.01
2022-12-11 20:28:00,,0817.4,5.00,0.00,27.9,27.0,00.0,36.6,29.8,05.7,0000.0,0002.53,0005.44,0001.92
2022-12-11 20:29:00,,0817.5,5.00,0.00,28.0,27.0,00.0,36.6,29.9,05.8,0000.0,0002.43,0004.96,0001.84
2022-12-11 20:30:00,,0817.5,5.00,0.00,28.0,27.0,00.0,36.6,29.9,05.8,0000.0,0002.35,0004.14,0001.77
2022-12-11 20:31:00,,0817.5,4.99,0.00,28.0,27.1,00.0,36.7,29.9,05.6,0000.0,0002.36,0004.02,0001.78
2022-12-11 20:32:00,,0817.5,5.00,0.00,28.0,27.1,00.0,36.7,29.9,05.5,0000.0,0002.51,0004.29,0001.87
2022-12-11 20:33:00,,0817.5,4.99,0.00,28.0,27.1,00.0,36.7,29.9,05.5,0000.0,0002.65,0004.58,0001.95
2022-12-11 20:34:00,,0817.5,5.01,0.00,28.1,27.1,00.0,36.7,30.0,05.6,0000.0,0002.70,0004.33,0002.01
2022-12-11 20:35:00,,0817.4,5.00,0.00,28.1,27.1,00.0,36.8,30.0,05.6,0000.0,0002.71,0004.29,0002.05
2022-12-11 20:36:00,,0817.4,5.00,0.00,28.1,27.2,00.0,36.8,30.0,05.5,0000.0,0002.71,0005.25,0002.05
2022-12-11 20:37:00,,0817.4,4.99,0.00,28.2,27.2,00.0,36.8,30.0,05.5,0000.0,0002.74,0005.49,0002.05
2022-12-11 20:38:00,,0817.3,5.01,0.00,28.2,27.2,00.0,36.8,30.1,05.5,0000.0,0002.71,0005.45,0002.05
2022-12-11 20:39:00,,0817.4,5.01,0.00,28.2,27.2,00.0,36.8,30.1,05.5,0000.0,0002.68,0005.45,0002.02
2022-12-11 20:40:00,,0817.3,5.00,0.00,28.2,27.2,00.0,36.9,30.1,05.5,0000.0,0002.65,0005.69,0001.99
2022-12-11 20:41:00,,0817.3,5.00,0.00,28.2,27.3,00.0,36.9,30.1,05.5,0000.0,0002.61,0005.77,0001.97
2022-12-11 20:42:00,,0817.3,5.00,0.00,28.3,27.3,00.0,36.9,30.1,05.4,0000.0,0002.56,0005.75,0001.92
2022-12-11 20:43:00,,0817.3,4.99,0.00,28.3,27.3,00.0,36.9,30.2,05.3,0000.0,0002.47,0005.53,0001.86
2022-12-11 20:44:00,,0817.3,5.00,0.00,28.3,27.3,00.0,37.0,30.2,05.3,0000.0,0002.34,0005.24,0001.80
2022-12-11 20:45:00,,0817.3,5.00,0.00,28.3,27.3,00.0,37.0,30.2,05.3,0000.0,0002.27,0005.19,0001.74
2022-12-11 20:46:00,,0817.3,5.00,0.00,28.3,27.3,00.0,37.0,30.2,05.5,0000.0,0002.19,0005.04,0001.67
2022-12-11 20:47:00,,0817.2,5.00,0.00,28.4,27.4,00.0,37.0,30.2,05.6,0000.0,0002.19,0003.92,0001.65
2022-12-11 20:48:00,,0817.2,5.00,0.00,28.4,27.4,00.0,37.0,30.3,05.5,0000.0,0002.20,0003.87,0001.66
2022-12-11 20:49:00,,0817.2,5.00,0.00,28.4,27.4,00.0,37.1,30.3,05.6,0000.0,0002.22,0004.01,0001.65
2022-12-11 20:50:00,,0817.2,5.00,0.00,28.4,27.5,00.0,37.1,30.3,05.5,0000.0,0002.22,0004.09,0001.66
2022-12-11 20:51:00,,0817.2,5.00,0.00,28.4,27.5,00.0,37.1,30.3,05.3,0000.0,0002.21,0003.83,0001.67
2022-12-11 20:52:00,,0817.2,5.00,0.00,28.5,27.5,00.0,37.1,30.4,05.3,0000.0,0002.21,0003.63,0001.66
2022-12-11 20:53:00,,0817.1,5.00,0.00,28.5,27.5,00.0,37.2,30.4,05.4,0000.0,0002.23,0003.94,0001.66
2022-12-11 20:54:00,,0817.2,5.00,0.00,28.5,27.5,00.0,37.2,30.4,05.3,0000.0,0002.21,0004.07,0001.68
2022-12-11 20:55:00,,0817.1,5.00,0.00,28.5,27.5,00.0,37.2,30.4,05.4,0000.0,0002.30,0004.35,0001.72
2022-12-11 20:56:00,,0817.2,4.99,0.00,28.6,27.6,00.0,37.2,30.4,05.5,0000.0,0002.37,0004.82,0001.74
2022-12-11 20:57:00,,0817.2,4.99,0.00,28.6,27.6,00.0,37.2,30.4,05.6,0000.0,0002.40,0005.25,0001.76
2022-12-11 20:58:00,,0817.1,5.00,0.00,28.6,27.6,00.0,37.3,30.5,05.6,0000.0,0002.41,0005.26,0001.77
2022-12-11 20:59:00,,0817.1,4.99,0.00,28.6,27.6,00.0,37.3,30.5,05.7,0000.0,0002.43,0005.65,0001.76
